CAPE
0 0 0 4 18 20 14 23 19 21 26 50 179 257 279 321 290 298 204 168 224 281 256 321 322 308 279 294 278 207 217 190 230 320 275 331 446 440 534 293 103 110 553
0 0 0 5 20 21 19 14 15 13 13 17 21 129 197 217 211 161 100 149 141 142 183 188 237 183 131 139 112 174 101 91 137 175 165 116 139 221 298 408 180 111 134
0 0 0 6 20 21 19 16 12 10 13 12 12 16 17 96 161 147 132 205 148 110 122 123 185 151 127 70 63 103 109 29 17 41 65 69 86 242 154 357 422 361 62
0 0 0 14 18 21 19 16 11 11 9 9 9 9 10 14 19 29 43 50 114 49 29 58 22 97 62 26 22 90 63 0 0 0 0 10 48 207 220 173 327 604 374
0 0 0 5 11 16 14 12 12 11 7 7 9 8 8 10 8 9 7 8 18 27 0 0 13 0 0 0 29 64 57 8 0 0 0 8 13 87 240 408 228 422 506
0 0 0 0 2 8 8 7 10 7 6 9 2 8 8 8 8 7 6 5 5 15 23 0 0 60 0 0 0 1 0 0 0 0 0 0 29 154 143 219 154 153 231
0 0 0 0 0 1 1 3 3 2 3 2 1 3 3 5 7 7 7 6 5 5 8 20 4 0 0 0 30 0 0 0 0 0 0 0 0 229 217 114 149 133 71
0 0 0 0 0 0 0 0 0 0 0 0 0 0 0 0 1 4 5 7 7 7 6 6 8 19 0 0 0 0 0 0 0 0 0 0 0 193 441 184 117 166 194
0 0 0 0 0 0 0 0 0 0 0 0 0 0 0 0 0 0 0 3 7 7 7 7 6 5 9 9 0 0 0 0 0 0 0 0 0 209 452 236 84 131 255
0 0 0 0 0 0 0 0 0 0 0 0 0 0 0 0 0 0 0 0 0 2 4 5 7 7 3 3 0 0 0 0 0 0 0 0 0 122 266 114 109 113 160
0 0 0 0 0 0 0 0 0 0 0 0 0 0 0 0 0 0 0 0 0 0 0 0 2 0 0 0 1 0 0 0 0 0 0 0 26 108 88 142 138 143 149
0 0 0 0 0 0 0 0 0 0 0 0 0 0 0 0 0 0 0 0 0 0 0 0 0 0 0 0 0 1 1 0 5 0 0 10 32 23 20 62 90 70 118
0 0 0 0 0 0 0 0 0 0 0 0 0 0 0 0 0 0 0 0 0 0 0 0 0 0 0 0 0 0 3 0 0 23 31 27 55 52 24 16 23 61 173
0 0 0 0 0 0 0 0 0 0 0 0 0 0 0 0 0 0 0 0 0 0 0 0 0 0 0 0 0 0 0 1 1 0 34 40 34 20 18 12 14 64 223
0 0 0 0 0 0 0 0 0 0 0 0 0 0 0 0 0 0 0 0 0 0 0 0 0 0 0 0 0 0 0 0 0 0 13 44 39 18 5 0 0 0 164
0 0 0 0 0 0 0 0 0 0 0 0 0 0 0 0 0 0 0 0 0 0 0 0 0 0 0 0 0 0 0 0 0 2 0 16 35 15 12 3 0 0 1
0 0 0 0 0 0 0 0 0 0 0 0 0 0 0 0 0 0 0 0 0 0 0 0 0 0 0 0 0 0 0 0 0 0 2 0 6 4 4 1 0 0 0
0 0 0 0 0 0 0 0 0 0 0 0 0 0 0 0 0 0 0 0 0 0 0 0 0 0 0 0 0 0 0 0 0 0 0 0 0 0 0 0 0 0 0
0 0 0 0 0 0 0 0 0 0 0 0 0 0 0 0 0 0 0 0 0 0 0 0 0 0 0 0 0 0 0 0 0 0 0 0 0 0 0 0 0 0 0
0 0 0 0 0 0 0 0 0 0 0 0 0 0 0 0 0 0 0 0 0 0 0 0 0 0 0 0 0 0 0 0 0 0 0 0 0 0 0 0 0 0 0
0 0 0 0 0 0 0 0 0 0 0 0 0 0 0 0 0 0 0 0 0 0 0 0 0 0 0 0 0 0 0 0 0 0 0 0 2 2 1 0 0 0 0
0 0 0 0 0 0 0 0 0 0 0 0 0 0 0 0 0 0 0 0 0 0 0 0 0 0 0 1 0 0 0 0 0 0 0 0 0 0 0 0 0 0 0
0 0 0 0 0 0 0 0 0 0 0 0 0 0 0 0 0 0 0 0 0 0 0 0 0 1 0 0 0 0 0 0 0 0 0 0 0 0 0 1 2 2 3
0 0 0 0 0 0 0 0 0 0 0 0 0 0 0 0 0 0 0 0 0 0 0 0 0 1 0 0 0 0 0 0 3 0 0 0 0 0 0 0 0 0 3
0 0 0 0 0 0 0 0 0 0 0 0 0 0 0 0 0 0 0 0 0 0 0 0 0 1 0 2 1 0 0 1 0 1 2 0 0 0 0 0 0 0 0
0 0 0 0 0 0 0 0 0 0 0 0 0 0 0 0 0 0 0 0 0 0 0 0 0 0 1 0 0 0 0 1 0 0 1 0 0 0 0 0 0 0 0
CIN
-0 -0 -0 -0 -0 -0 -0 -0 -0 -0 -0 -0 -45 -47 -48 -44 -50 -47 -53 -61 -47 -28 -30 -16 -21 -25 -37 -25 -30 -40 -41 -46 -25 -8 -19 -5 -3 -5 -1 -33 -92 -88 -0
-0 -0 -0 -0 -0 -0 -0 -0 -0 -0 -0 -0 -0 -7 -55 -58 -59 -80 -103 -83 -81 -73 -52 -35 -19 -44 -98 -105 -100 -61 -71 -87 -54 -45 -50 -83 -71 -27 -11 -4 -59 -61 -61
-0 -0 -0 -0 -0 -0 -0 -0 -0 -0 -0 -0 -0 -0 -0 -70 -73 -90 -110 -72 -88 -96 -88 -89 -48 -51 -61 -111 -135 -105 -86 -28 -41 -47 -44 -50 -47 -12 -65 -5 -2 -3 -132
-0 -0 -0 -0 -0 -0 -0 -0 -0 -0 -0 -0 -0 -0 -0 -0 -0 -0 -0 -29 -86 -105 -118 -109 -85 -95 -115 -99 -75 -103 -115 -0 -0 -0 -0 -29 -59 -23 -18 -44 -7 -1 -2
-0 -0 -0 -0 -0 -0 -0 -0 -0 -0 -0 -0 -0 -0 -0 -0 -0 -0 -0 -0 -0 -27 -0 -0 -31 -0 -0 -0 -147 -135 -63 -15 -0 -0 -0 -29 -83 -57 -16 -5 -24 -0 -0
-0 -0 -0 -0 -0 -0 -0 -0 -0 -0 -0 -0 -0 -0 -0 -0 -0 -0 -0 -0 -0 -0 -0 -0 -0 -71 -0 -0 -0 -3 -0 -0 -0 -0 -0 -0 -105 -41 -22 -25 -42 -43 -13
-0 -0 -0 -0 -0 -1 -0 -0 -0 -0 -0 -0 -0 -0 -0 -0 -0 -0 -0 -0 -0 -0 -0 -0 -0 -0 -0 -0 -101 -0 -0 -0 -0 -0 -0 -0 -0 -31 -15 -35 -35 -52 -82
-0 -0 -0 -0 -0 -0 -0 -0 -0 -0 -0 -0 -0 -0 -0 -0 -0 -0 -0 -0 -0 -0 -0 -0 -0 -0 -0 -0 -0 -0 -0 -0 -0 -0 -0 -0 -0 -25 -4 -12 -29 -24 -27
-0 -0 -0 -0 -0 -0 -0 -0 -0 -0 -0 -0 -0 -0 -0 -0 -0 -0 -0 -0 -0 -0 -0 -0 -0 -0 -0 -0 -0 -0 -0 -0 -0 -0 -0 -0 -0 -29 -5 -6 -31 -22 -15
-0 -0 -0 -0 -0 -0 -0 -0 -0 -0 -0 -0 -0 -0 -0 -0 -0 -0 -0 -0 -0 -0 -0 -0 -0 -0 -0 -0 -0 -0 -0 -0 -0 -0 -0 -0 -0 -25 -9 -17 -22 -29 -17
-0 -0 -0 -0 -0 -0 -0 -0 -0 -0 -0 -0 -0 -0 -0 -0 -0 -0 -0 -0 -0 -0 -0 -0 -0 -0 -0 -0 -0 -0 -0 -0 -0 -0 -0 -0 -5 -9 -14 -13 -13 -11 -18
-0 -0 -0 -0 -0 -0 -0 -0 -0 -0 -0 -0 -0 -0 -0 -0 -0 -0 -0 -0 -0 -0 -0 -0 -0 -0 -0 -0 -0 -0 -0 -0 -17 -13 -0 -8 -12 -7 -10 -11 -11 -17 -20
-0 -0 -0 -0 -0 -0 -0 -0 -0 -0 -0 -0 -0 -0 -0 -0 -0 -0 -0 -0 -0 -0 -0 -0 -0 -0 -0 -0 -0 -0 -0 -0 -0 -14 -21 -17 -17 -8 -9 -9 -8 -18 -10
-0 -0 -0 -0 -0 -0 -0 -0 -0 -0 -0 -0 -0 -0 -0 -0 -0 -0 -0 -0 -0 -0 -0 -0 -0 -0 -0 -0 -0 -0 -0 -0 -0 -6 -19 -8 -19 -22 -19 -15 -9 -8 -7
-0 -0 -0 -0 -0 -0 -0 -0 -0 -0 -0 -0 -0 -0 -0 -0 -0 -0 -0 -0 -0 -0 -0 -0 -0 -0 -0 -0 -0 -0 -0 -0 -0 -0 -12 -10 -13 -19 -16 -0 -0 -0 -12
-0 -0 -0 -0 -0 -0 -0 -0 -0 -0 -0 -0 -0 -0 -0 -0 -0 -0 -0 -0 -0 -0 -0 -0 -0 -0 -0 -0 -0 -0 -0 -0 -0 -0 -0 -14 -22 -36 -25 -21 -0 -0 -0
-0 -0 -0 -0 -0 -0 -0 -0 -0 -0 -0 -0 -0 -0 -0 -0 -0 -0 -0 -0 -0 -0 -0 -0 -0 -0 -0 -0 -0 -0 -0 -0 -0 -0 -0 -0 -32 -41 -50 -37 -0 -0 -0
-0 -0 -0 -0 -0 -0 -0 -0 -0 -0 -0 -0 -0 -0 -0 -0 -0 -0 -0 -0 -0 -0 -0 -0 -0 -0 -0 -0 -0 -0 -0 -0 -0 -0 -0 -0 -0 -0 -0 -0 -0 -0 -0
-0 -0 -0 -0 -0 -0 -0 -0 -0 -0 -0 -0 -0 -0 -0 -0 -0 -0 -0 -0 -0 -0 -0 -0 -0 -0 -0 -0 -0 -0 -0 -0 -0 -0 -0 -0 -0 -0 -0 -0 -0 -0 -0
-0 -0 -0 -0 -0 -0 -0 -0 -0 -0 -0 -0 -0 -0 -0 -0 -0 -0 -0 -0 -0 -0 -0 -0 -0 -0 -0 -0 -0 -0 -0 -0 -0 -0 -0 -0 -0 -0 -0 -0 -0 -0 -0
-0 -0 -0 -0 -0 -0 -0 -0 -0 -0 -0 -0 -0 -0 -0 -0 -0 -0 -0 -0 -0 -0 -0 -0 -0 -0 -0 -0 -0 -0 -0 -0 -0 -0 -0 -0 -0 -0 -0 -0 -0 -0 -0
-0 -0 -0 -0 -0 -0 -0 -0 -0 -0 -0 -0 -0 -0 -0 -0 -0 -0 -0 -0 -0 -0 -0 -0 -0 -0 -0 -0 -0 -0 -0 -0 -0 -0 -0 -0 -0 -0 -0 -0 -0 -0 -0
-0 -0 -0 -0 -0 -0 -0 -0 -0 -0 -0 -0 -0 -0 -0 -0 -0 -0 -0 -0 -0 -0 -0 -0 -0 -0 -0 -0 -0 -0 -0 -0 -0 -0 -0 -0 -0 -0 -0 -0 -0 -0 -0
-0 -0 -0 -0 -0 -0 -0 -0 -0 -0 -0 -0 -0 -0 -0 -0 -0 -0 -0 -0 -0 -0 -0 -0 -0 -0 -0 -0 -0 -0 -0 -0 -0 -0 -0 -0 -0 -0 -0 -0 -0 -0 -0
-0 -0 -0 -0 -0 -0 -0 -0 -0 -0 -0 -0 -0 -0 -0 -0 -0 -0 -0 -0 -0 -0 -0 -0 -0 -0 -0 -0 -0 -0 -0 -0 -0 -0 -0 -0 -0 -0 -0 -0 -0 -0 -0
-0 -0 -0 -0 -0 -0 -0 -0 -0 -0 -0 -0 -0 -0 -0 -0 -0 -0 -0 -0 -0 -0 -0 -0 -0 -0 -0 -0 -0 -0 -0 -0 -0 -0 -0 -0 -0 -0 -0 -0 -0 -0 -0
Wind_Speed
19 20 20 20 20 21 21 20 20 19 18 18 19 19 19 19 19 20 20 20 20 20 20 20 20 21 21 22 21 21 21 22 22 22 22 21 21 22 21 20 20 20 19
20 20 19 19 20 21 21 21 21 21 20 19 19 20 20 20 20 20 20 20 20 21 21 20 20 20 21 21 21 21 21 21 20 20 20 19 19 20 19 19 19 19 19
19 19 19 19 20 20 21 21 21 21 21 20 21 20 21 22 22 21 21 21 21 21 21 21 21 21 21 21 21 21 20 20 20 19 19 19 18 19 18 18 17 17 17
18 18 19 19 19 20 20 21 21 21 21 21 21 21 21 22 22 23 23 22 22 22 22 22 22 22 21 21 21 21 21 20 20 19 19 19 19 17 17 16 16 15 15
17 18 19 19 19 20 20 21 21 21 21 22 22 22 22 23 23 23 23 24 24 23 24 23 23 23 22 22 22 22 21 20 20 20 19 19 21 16 14 14 14 13 12
17 18 18 19 19 20 20 21 21 22 21 22 22 22 23 23 23 23 24 24 24 25 24 24 24 24 24 24 23 23 23 22 21 19 19 20 22 14 12 13 13 13 11
16 17 18 19 19 20 20 21 21 22 22 23 23 24 24 24 24 24 25 25 25 26 26 25 25 25 25 25 24 24 23 23 22 21 20 20 22 17 13 13 11 11 9
16 18 18 19 19 19 20 21 22 22 23 23 24 24 25 25 25 25 26 26 26 26 27 27 27 26 26 26 26 25 25 24 23 22 22 22 22 19 13 11 10 7 7
16 17 19 19 20 20 21 22 22 23 24 24 25 25 25 26 26 26 27 27 27 27 27 28 28 27 27 27 27 27 26 26 25 25 24 23 22 21 16 14 10 6 5
17 18 20 20 21 21 22 23 23 24 24 25 26 26 26 26 27 27 28 28 28 28 28 29 29 28 28 28 28 29 28 25 24 25 25 23 23 22 20 17 14 9 5
18 19 21 21 22 22 22 23 24 24 24 25 26 27 27 27 28 28 28 29 29 30 30 30 30 30 30 29 29 30 29 26 25 25 24 25 22 20 21 20 20 14 9
19 20 22 22 23 23 23 24 24 25 25 26 27 27 28 28 28 28 29 30 30 31 31 31 31 31 31 30 30 30 29 29 29 27 24 23 23 23 22 23 23 20 14
20 20 22 23 23 23 24 24 25 25 26 26 28 28 29 29 29 30 30 31 31 33 32 33 32 32 33 32 32 31 32 31 30 28 24 22 24 25 24 25 25 24 20
19 20 22 23 23 23 24 24 25 25 26 26 28 29 29 29 30 31 31 32 32 33 34 34 34 34 35 34 34 34 34 33 32 30 28 23 24 25 25 26 27 27 25
19 20 21 22 22 22 23 23 24 25 26 26 28 29 29 30 30 31 31 32 33 33 34 35 35 36 36 36 36 36 35 35 35 33 30 28 23 24 26 27 27 28 28
18 19 20 20 21 22 22 23 24 25 26 27 28 29 30 30 31 31 32 33 33 34 35 35 36 38 37 38 38 38 38 36 36 35 32 29 29 28 26 27 29 28 29
16 18 19 20 22 22 22 23 24 24 26 27 28 29 30 31 32 32 32 33 35 35 36 36 37 37 38 38 39 39 39 40 39 37 34 32 30 31 31 29 30 31 31
16 18 19 20 22 22 22 22 23 24 25 27 28 29 31 32 33 33 33 34 36 36 36 37 38 39 40 40 41 43 42 41 40 38 36 34 33 32 31 32 33 34 35
15 17 19 20 22 22 22 21 22 24 26 27 29 30 32 32 33 33 34 35 36 36 37 38 38 39 42 42 44 43 42 42 41 39 38 38 36 35 35 35 36 38 39
15 17 18 20 22 22 22 21 22 24 26 28 29 31 32 33 33 34 34 35 36 37 38 39 39 39 39 43 44 42 44 42 39 39 40 39 40 40 39 39 38 39 41
16 17 19 20 22 23 23 24 24 25 27 29 30 31 32 33 34 34 35 36 37 38 39 40 40 42 39 45 43 46 41 40 33 35 38 38 41 42 42 42 42 39 39
16 17 19 20 22 23 23 24 23 24 25 27 30 31 32 34 34 35 36 37 38 39 40 41 41 42 38 42 43 43 45 40 38 44 39 41 40 41 43 43 43 43 41
17 18 19 20 21 22 24 24 23 23 25 28 30 32 33 34 35 35 36 38 39 39 40 41 41 42 42 39 41 38 44 46 52 40 47 43 45 42 42 42 43 45 44
18 18 18 20 21 22 23 24 24 25 27 28 30 31 33 34 35 36 37 38 38 39 40 41 40 40 40 43 38 37 39 43 47 55 44 50 41 48 47 46 44 45 46
17 17 18 19 21 22 23 23 24 25 26 27 29 31 32 34 34 36 37 38 38 39 39 40 40 40 39 41 41 42 42 42 42 49 60 54 54 48 50 47 49 46 45
16 17 18 20 21 22 23 23 25 26 28 29 31 32 33 34 34 35 37 38 38 39 39 40 40 39 40 39 40 40 41 42 48 49 57 58 59 53 52 51 51 49 45
Wind_Direction
294 301 302 304 319 328 333 342 347 345 343 346 347 348 348 344 345 343 344 341 341 343 346 344 344 348 353 353 354 355 1 3 11 17 25 31 32 33 41 42 40 32 29
297 301 300 303 319 329 335 341 348 351 347 344 343 347 347 348 348 345 340 338 337 338 341 341 338 341 344 350 355 354 1 2 358 3 5 6 5 15 40 44 38 43 38
304 302 297 306 319 328 334 341 345 348 349 349 348 347 348 349 350 347 342 339 336 337 338 339 343 345 346 345 348 352 354 355 352 349 355 344 341 354 17 33 37 32 37
308 304 297 313 319 327 333 338 342 343 347 346 345 347 346 347 347 350 348 340 338 336 334 333 333 338 341 340 345 348 352 350 344 348 354 348 333 1 14 22 33 35 37
310 312 303 313 318 326 332 336 339 342 343 342 344 344 345 345 345 344 344 343 340 337 335 331 330 330 333 337 340 337 342 349 349 345 344 345 329 4 24 25 31 38 38
313 311 313 318 322 328 332 336 338 340 341 342 342 342 343 343 342 342 340 339 337 339 336 334 331 328 326 327 329 332 329 331 338 345 343 335 332 9 29 24 27 30 40
312 313 312 318 322 327 333 335 337 338 339 339 339 339 340 340 341 340 338 335 334 334 334 332 328 328 327 326 326 326 329 328 331 331 333 332 328 343 8 10 24 34 44
319 315 316 320 324 326 329 332 335 337 337 338 337 337 337 338 336 335 334 333 332 332 333 331 330 325 322 321 322 323 323 323 324 329 323 323 325 331 355 8 16 39 56
320 319 316 317 318 322 327 330 332 334 336 336 335 334 335 336 335 334 331 330 328 327 328 328 326 325 324 320 317 316 318 319 318 317 320 317 317 321 336 342 358 17 37
324 323 321 323 323 322 326 328 330 332 333 333 333 332 331 331 331 330 329 326 325 324 323 323 324 325 323 322 321 317 314 319 322 318 317 318 313 317 321 329 336 345 356
319 321 321 321 322 320 324 324 326 329 329 330 329 330 328 328 325 325 326 326 325 323 320 320 320 321 321 320 318 317 315 319 319 320 320 316 318 319 319 319 319 325 330
313 315 320 321 322 322 324 323 325 327 327 329 328 327 328 327 326 325 323 323 323 321 320 317 315 317 319 319 317 315 317 314 312 314 318 318 316 315 316 315 313 315 319
313 318 322 324 324 326 326 326 328 328 328 329 330 329 327 326 325 325 324 323 321 319 319 317 316 314 310 312 312 313 312 314 313 314 317 317 313 314 315 311 310 310 311
315 318 323 327 329 330 330 332 332 333 332 332 332 332 331 329 327 325 323 322 322 320 317 316 315 314 311 309 309 308 307 307 310 311 313 316 312 310 310 311 308 305 306
315 318 322 328 332 335 338 339 339 338 338 337 338 337 336 334 331 329 328 327 324 322 320 316 313 311 310 309 307 307 306 304 302 306 308 308 312 312 310 309 308 306 303
320 323 327 333 336 338 341 342 341 341 340 342 341 340 340 339 336 334 332 330 328 326 323 319 316 311 309 308 306 305 302 304 304 301 304 306 305 305 306 308 306 308 301
320 324 327 330 335 337 340 342 343 345 344 345 344 344 343 342 339 338 336 334 331 329 326 324 321 318 314 310 306 305 303 300 300 300 301 301 302 301 301 303 302 303 301
319 322 326 329 330 332 335 340 345 346 348 346 345 344 343 343 342 341 339 336 333 332 330 327 324 319 316 313 309 304 301 300 299 297 298 299 299 298 298 299 298 298 296
320 323 325 329 330 332 335 340 342 343 344 345 344 344 342 342 342 341 339 337 336 334 332 329 326 324 317 315 310 308 305 301 298 296 295 293 294 294 294 294 294 293 292
317 321 325 328 330 331 333 336 339 341 341 341 339 339 339 339 339 338 337 336 335 334 332 331 328 327 323 319 313 310 306 304 300 297 295 292 290 290 291 290 291 290 288
311 315 320 324 327 329 329 328 329 331 334 337 337 337 337 336 336 336 335 334 333 331 330 329 327 324 324 322 317 311 309 307 306 303 302 297 293 289 289 288 289 289 288
303 309 316 321 325 328 331 330 330 330 332 334 335 336 336 336 336 335 334 332 332 330 330 329 328 325 324 326 319 314 308 307 304 301 300 299 298 294 290 287 286 287 286
296 303 311 318 323 328 330 331 331 332 332 332 333 334 335 336 336 336 335 334 332 331 329 329 329 327 323 324 324 319 310 304 305 302 299 298 297 296 293 290 287 285 284
292 302 309 315 320 324 328 330 330 330 328 329 330 332 334 335 336 336 336 335 334 333 331 330 329 328 326 322 323 322 316 310 306 299 301 298 295 293 292 288 287 287 283
288 296 305 313 317 320 324 327 328 328 329 329 330 331 334 336 337 337 337 335 334 334 332 331 330 328 326 323 320 318 315 313 307 301 297 297 295 294 290 288 285 285 285
285 293 301 307 311 315 319 323 324 325 326 326 327 329 331 333 335 337 336 336 335 334 333 332 331 329 327 324 322 319 315 311 307 303 299 298 293 292 291 286 282 281 282